Monterey, CA

7:43 PM PDT on October 22, 2017 (GMT -0700)
Monterey Peninsula

Weather History for KMRY - July, 2013

Change the Weather History Date:

Wednesday, July 17, 2013

  Actual Average Record
Temperature  
Mean Temperature 61 °F 60 °F  
Max Temperature 65 °F 67 °F 75 °F (2006)
Min Temperature 56 °F 54 °F 50 °F (2003)
Degree Days  
Heating Degree Days 4    
Month to date heating degree days 62  
Since 1 June heating degree days 190  
Since 1 July heating degree days 62  
Cooling Degree Days 0    
Month to date cooling degree days 5  
Year to date cooling degree days 21  
Since 1 June cooling degree days 14  
Growing Degree Days 10 (Base 50)    
Moisture  
Dew Point 54 °F    
Average Humidity 80    
Maximum Humidity 93    
Minimum Humidity 67    
Precipitation  
Precipitation 0.00 in - 0.00 in (2017)
Month to date precipitation 0.00  
Year to date precipitation 3.15  
Since 1 July precipitation 0.00  
Sea Level Pressure  
Sea Level Pressure 30.11 in    
Wind  
Wind Speed 6 mph (West)    
Max Wind Speed 15 mph    
Max Gust Speed 20 mph    
Visibility 10 miles    
Events      
T = Trace of Precipitation, MM = Missing Value Source: NWS Daily Summary

Daily Weather History Graph

Daily Weather History Graph

Search for Another Location

Airport or City:

Trip Planner

Search our weather history database for the weather conditions in past years. The results will help you decide how hot, cold, wet, or windy it might be!

Date:

Astronomy

Jul. 17, 2013 Rise Set
Actual Time 6:02 AM PDT 8:24 PM PDT
Civil Twilight 5:32 AM PDT 8:54 PM PDT
Nautical Twilight 4:56 AM PDT 9:30 PM PDT
Astronomical Twilight 4:16 AM PDT 10:10 PM PDT
Moon 3:21 PM PDT (7/17) 1:09 AM PDT (7/17)
Length of Visible Light 15h 21m
Length of Day
14h 22m
Waxing Gibbous, 68% of the Moon is Illuminated
Jul 17
Waxing Gibbous
Jul 22
Full
Jul 29
Last Quarter
Aug 6
New
Aug 14
First Quarter

Hourly Weather History & Observations

Time (PDT) Temp. Dew Point Humidity Pressure Visibility Wind Dir Wind Speed Gust Speed Precip Events Conditions
12:54 AM 59.0 °F 55.0 °F 87% 30.09 in 10.0 mi South 3.5 mph - N/A   Overcast
1:54 AM 57.9 °F 55.0 °F 90% 30.09 in 10.0 mi WSW 4.6 mph - N/A   Overcast
2:28 AM 57.2 °F 55.4 °F 94% 30.05 in 9.0 mi Calm Calm - N/A   Overcast
2:54 AM 57.9 °F 55.0 °F 90% 30.08 in 7.0 mi Calm Calm - N/A   Overcast
3:54 AM 57.0 °F 55.0 °F 93% 30.08 in 9.0 mi Calm Calm - N/A   Overcast
4:20 AM 57.2 °F 53.6 °F 88% 30.05 in 10.0 mi Calm Calm - N/A   Overcast
4:34 AM 57.2 °F 53.6 °F 88% 30.05 in 10.0 mi Calm Calm - N/A   Overcast
4:54 AM 55.9 °F 51.1 °F 84% 30.09 in 10.0 mi ESE 6.9 mph - N/A   Overcast
5:54 AM 57.0 °F 51.1 °F 81% 30.10 in 10.0 mi Calm Calm - N/A   Overcast
6:04 AM 57.2 °F 51.8 °F 82% 30.07 in 10.0 mi East 3.5 mph - N/A   Overcast
6:54 AM 57.9 °F 53.1 °F 84% 30.12 in 10.0 mi Calm Calm - N/A   Overcast
7:54 AM 57.9 °F 55.0 °F 90% 30.13 in 9.0 mi Calm Calm - N/A   Overcast
8:54 AM 59.0 °F 55.0 °F 87% 30.14 in 10.0 mi West 4.6 mph - N/A   Overcast
9:54 AM 59.0 °F 55.0 °F 87% 30.14 in 10.0 mi WNW 5.8 mph - N/A   Overcast
10:19 AM 60.8 °F 53.6 °F 77% 30.11 in 10.0 mi WNW 6.9 mph - N/A   Overcast
10:54 AM 61.0 °F 54.0 °F 78% 30.15 in 10.0 mi Variable 6.9 mph - N/A   Overcast
11:54 AM 63.0 °F 54.0 °F 72% 30.15 in 10.0 mi WNW 9.2 mph - N/A   Scattered Clouds
12:44 PM 62.6 °F 53.6 °F 72% 30.11 in 10.0 mi WNW 12.7 mph - N/A   Mostly Cloudy
12:54 PM 63.0 °F 54.0 °F 72% 30.15 in 10.0 mi WNW 11.5 mph - N/A   Mostly Cloudy
1:03 PM 62.6 °F 53.6 °F 72% 30.11 in 10.0 mi WNW 12.7 mph - N/A   Scattered Clouds
1:36 PM 64.4 °F 53.6 °F 68% 30.11 in 10.0 mi West 15.0 mph - N/A   Mostly Cloudy
1:49 PM 62.6 °F 53.6 °F 72% 30.11 in 10.0 mi WNW 13.8 mph - N/A   Scattered Clouds
1:54 PM 64.0 °F 54.0 °F 70% 30.15 in 10.0 mi WNW 12.7 mph - N/A   Scattered Clouds
2:05 PM 64.4 °F 53.6 °F 68% 30.12 in 10.0 mi West 12.7 mph 19.6 mph N/A   Mostly Cloudy
2:40 PM 64.4 °F 53.6 °F 68% 30.11 in 10.0 mi West 10.4 mph 18.4 mph N/A   Scattered Clouds
2:54 PM 64.9 °F 53.1 °F 65% 30.15 in 10.0 mi West 10.4 mph - N/A   Scattered Clouds
3:54 PM 64.0 °F 53.1 °F 67% 30.15 in 10.0 mi West 13.8 mph 18.4 mph N/A   Mostly Cloudy
4:11 PM 62.6 °F 53.6 °F 72% 30.11 in 10.0 mi West 11.5 mph - N/A   Mostly Cloudy
4:54 PM 64.0 °F 53.1 °F 67% 30.14 in 10.0 mi West 10.4 mph - N/A   Mostly Cloudy
5:20 PM 62.6 °F 53.6 °F 72% 30.10 in 10.0 mi West 12.7 mph - N/A   Scattered Clouds
5:49 PM 62.6 °F 53.6 °F 72% 30.10 in 10.0 mi West 9.2 mph - N/A   Mostly Cloudy
5:54 PM 61.0 °F 53.1 °F 75% 30.13 in 10.0 mi West 10.4 mph - N/A   Mostly Cloudy
6:54 PM 60.1 °F 53.1 °F 78% 30.13 in 10.0 mi West 6.9 mph - N/A   Overcast
7:54 PM 59.0 °F 53.1 °F 81% 30.13 in 10.0 mi West 9.2 mph - N/A   Overcast
8:12 PM 57.2 °F 53.6 °F 88% 30.09 in 10.0 mi West 8.1 mph - N/A   Overcast
8:54 PM 57.0 °F 53.1 °F 87% 30.13 in 10.0 mi West 4.6 mph - N/A   Overcast
9:14 PM 55.4 °F 53.6 °F 94% 30.09 in 10.0 mi WSW 5.8 mph - N/A   Overcast
9:54 PM 55.9 °F 53.1 °F 90% 30.14 in 10.0 mi SW 3.5 mph - N/A   Overcast
10:54 PM 55.9 °F 53.1 °F 90% 30.14 in 10.0 mi WSW 4.6 mph - N/A   Overcast
11:54 PM 55.9 °F 53.1 °F 90% 30.13 in 10.0 mi SSW 5.8 mph - N/A   Overcast